Location: Chandolas
(44.4033°N, 4.2533°E)
Time: 06:32:30
(UTC+00:00)

ATLAS 2AS CENTAUR R/B - Pass Details

Date: 15 November 2019
Orbit: 926 x 1286 km, 63.7° (Epoch: 09 December)

Event Time Altitude Azimuth Distance (km) Brightness Sun altitude
Exits shadow 04:58:03 10° 326° (NW) 3,195 4.8 -17.9°
Maximum altitude 05:05:42 65° 48° (NE) 1,274 3.2 -16.6°
Drops below altitude 10° 05:12:43 10° 130° (SE) 2,944 6.0 -15.3°
Sets 05:15:17 0° 133° (SE) 3,847 6.6 -14.9°
